Location: Camerons Lookout
(40.9833°S, 175.9333°E)
Time: 09:05:27
(UTC+00:00)

Cosmos 2369 Rocket - Pass Details

Date: 14 January 2026
Orbit: 827 x 853 km, 71.0° (Epoch: 16 February)

Event Time Altitude Azimuth Distance (km) Brightness Sun altitude
Rises 08:49:45 0° 309° (NW) 3,382 5.5 -10.2°
Reaches altitude 10° 08:52:27 10° 299° (WNW) 2,452 4.9 -10.6°
Maximum altitude 08:57:25 32° 237° (WSW) 1,421 4.2 -11.3°
Drops below altitude 10° 09:02:26 10° 174° (S) 2,465 5.2 -12.0°
Sets 09:05:10 0° 164° (SSE) 3,403 5.7 -12.4°
